Regional Weather Roundup
Issued by NWS

Home | Current Version | Previous Version | Graphics & Text | Print | Product List | Glossary Off
Versions: 1 2 3 4 5 6 7 8 9 10 11 12 13 14 15 16 17 18 19 20 21 22 23 24 25 26 27 28 29 30 31 32 33 34 35 36 37 38 39 40 41 42 43 44 45 46 47 48 49 50

000
ASUS43 KLSX 310710
RWRMO

WEATHER SUMMARY FOR MISSOURI
NATIONAL WEATHER SERVICE SPRINGFIELD MO
200 AM CDT MON AUG 31 2015

NOTE: "FAIR" INDICATES FEW OR NO CLOUDS BELOW 12,000 FEET WITH NO
       SIGNIFICANT WEATHER AND/OR OBSTRUCTIONS TO VISIBILITY.
       CURRENT SKY AND/OR WEATHER CONDITIONS ARE NOT AVAILABLE FOR
       CHILLICOTHE AND FARMINGTON.

MOZ001>031-035>038-043-044-053-054-310800-
...NORTHERN AND WESTERN MISSOURI...

CITY           SKY/WX    TMP DP  RH WIND       PRES   REMARKS
KANSAS CTY INT PTCLDY    73  69  87 SE6       29.96F
KANSAS C DTWN  CLEAR     76  71  85 CALM      29.95F
LEE`S SUMMIT   CLEAR     74  70  87 SE5       29.97F
ST JOSEPH      PTCLDY    68  67  96 CALM      29.96S FOG
CHILLICOTHE      N/A     73  70  90 CALM      29.98F
KIRKSVILLE     PTCLDY    67  64  90 SE3       30.01S

$$
MOZ066>068-077>081-088>096-101>105-310800-
...SOUTHWEST MISSOURI...

CITY           SKY/WX    TMP DP  RH WIND       PRES   REMARKS
SPRINGFIELD    CLEAR     74  68  81 S8        30.00S
JOPLIN         CLEAR     74  69  85 SE7       29.98R

$$
MOZ032>034-039>042-045>050-055>058-069>072-310800-
...CENTRAL MISSOURI...

CITY           SKY/WX    TMP DP  RH WIND       PRES   REMARKS
COLUMBIA       CLEAR     71  70  96 S5        30.00S FOG
JEFFERSON CITY CLEAR     72  69  90 CALM      29.99S
ROLLA          CLEAR     72  69  90 S8        30.01S
SEDALIA        CLEAR     72  69  90 SE5       30.00S FOG
WHITEMAN AFB   CLEAR     72  72  99 S3        29.97S
WARRENSBURG    CLEAR     72  70  94 SE3       29.97F
OSAGE BEACH    CLEAR     72  66  83 CALM      30.01S

$$
MOZ051-052-059>065-310800-
...EAST CENTRAL MISSOURI...

CITY           SKY/WX    TMP DP  RH WIND       PRES   REMARKS
ST LOUIS INTL  PTCLDY    78  70  76 S6        30.01S
SPIRIT OF STL  MOCLDY    73  71  93 CALM      30.00S
ST CHARLES     CLEAR     72  71  97 E3        30.00S

$$
MOZ072>076-082>087-097>100-106>115-310800-
...SOUTH CENTRAL AND SOUTHEAST MISSOURI...

CITY           SKY/WX    TMP DP  RH WIND       PRES   REMARKS
CAPE GIRARDEAU CLOUDY    70  67  90 CALM      30.03F
FARMINGTON     CLEAR     70  70 100 S5        30.06F
POPLAR BLUFF   CLEAR     68  66  93 CALM      30.02S FOG
WEST PLAINS    CLEAR     71  67  87 SE3       30.05S

$$


USA.gov is the U.S. government's official web portal to all federal, state and local government web resources and services.